Weather History for KEZS - April, 2014

Change the Weather History Date:

Wednesday, April 16, 2014

  Actual Average (KGRB) Record (KGRB)
Temperature  
Mean Temperature 32 °F 44 °F  
Max Temperature 41 °F 54 °F 84 °F (1896)
Min Temperature 22 °F 34 °F 14 °F (1904)
Degree Days  
Heating Degree Days 34 21  
Month to date heating degree days 386  
Since 1 July heating degree days 7286  
Cooling Degree Days 0 0  
Month to date cooling degree days 0  
Year to date cooling degree days 0  
Moisture  
Dew Point 25 °F    
Average Humidity 74    
Maximum Humidity 90    
Minimum Humidity 54    
Precipitation  
Precipitation 0.00 in 0.10 in 1.83 in (1945)
Month to date precipitation 1.38  
Year to date precipitation 5.47  
Snow  
Snow 0.00 in 0.10 in 2.10 in (1998)
Month to date snowfall 2.1  
Since 1 July snowfall 50.4  
Snow Depth -    
Sea Level Pressure  
Sea Level Pressure 30.20 in    
Wind  
Wind Speed 5 mph (ESE)    
Max Wind Speed 20 mph    
Max Gust Speed 26 mph    
Visibility 10 miles    
Events Snow    
T = Trace of Precipitation, MM = Missing Value Source: NWS Daily Summary

Daily Weather History Graph

Daily Weather History Graph

Search for Another Location

Airport or City:

Trip Planner

Search our weather history database for the weather conditions in past years. The results will help you decide how hot, cold, wet, or windy it might be!

Date:

Astronomy

Apr. 16, 2014 Rise Set
Actual Time 6:08 AM CDT 7:40 PM CDT
Civil Twilight 5:37 AM CDT 8:11 PM CDT
Nautical Twilight 5:00 AM CDT 8:48 PM CDT
Astronomical Twilight 4:20 AM CDT 9:28 PM CDT
Moon 9:28 PM CDT (4/16) 6:52 AM CDT (4/16)
Length of Visible Light 14h 33m
Length of Day
13h 32m
Full, 98% of the Moon is Illuminated
Apr 16
Full
Apr 22
Last Quarter
Apr 29
New
May 6
First Quarter
May 14
Full

Hourly Weather History & Observations

Time (CDT) Temp. Windchill Dew Point Humidity Pressure Visibility Wind Dir Wind Speed Gust Speed Precip Events Conditions
12:15 AM 25.7 °F - 18.5 °F 74% 30.18 in 10.0 mi Calm Calm - N/A   Clear
12:35 AM 25.2 °F - 18.1 °F 75% 30.19 in 10.0 mi Calm Calm - N/A   Clear
12:55 AM 24.8 °F - 18.5 °F 77% 30.19 in 10.0 mi Calm Calm - N/A   Clear
1:15 AM 24.8 °F - 18.5 °F 77% 30.19 in 10.0 mi Calm Calm - N/A   Clear
1:35 AM 24.8 °F - 18.7 °F 78% 30.19 in 10.0 mi Calm Calm - N/A   Clear
1:55 AM 23.9 °F - 19.0 °F 82% 30.20 in 10.0 mi Calm Calm - N/A   Clear
2:15 AM 24.1 °F - 19.4 °F 82% 30.20 in 10.0 mi Calm Calm - N/A   Clear
2:35 AM 23.7 °F - 20.3 °F 87% 30.20 in 10.0 mi Calm Calm - N/A   Clear
2:55 AM 23.4 °F - 19.6 °F 85% 30.20 in 10.0 mi Calm Calm - N/A   Clear
3:15 AM 23.4 °F - 20.3 °F 88% 30.21 in 10.0 mi Calm Calm - N/A   Clear
3:35 AM 24.1 °F - 19.6 °F 83% 30.21 in 10.0 mi Calm Calm - N/A   Clear
3:55 AM 24.6 °F - 19.9 °F 82% 30.21 in 10.0 mi Calm Calm - N/A   Clear
4:15 AM 23.7 °F - 19.4 °F 84% 30.21 in 10.0 mi Calm Calm - N/A   Clear
4:35 AM 23.7 °F - 19.6 °F 84% 30.22 in 10.0 mi Calm Calm - N/A   Clear
4:55 AM 24.8 °F - 19.8 °F 81% 30.23 in 10.0 mi Calm Calm - N/A   Clear
5:15 AM 25.7 °F - 19.2 °F 76% 30.22 in 10.0 mi Calm Calm - N/A   Clear
5:35 AM 23.0 °F - 19.2 °F 85% 30.23 in 10.0 mi Calm Calm - N/A   Clear
5:55 AM 22.1 °F - 19.4 °F 89% 30.23 in 10.0 mi Calm Calm - N/A   Clear
6:15 AM 23.0 °F - 20.3 °F 89% 30.24 in 10.0 mi Calm Calm - N/A   Clear
6:35 AM 23.5 °F - 21.0 °F 90% 30.25 in 10.0 mi Calm Calm - N/A   Clear
6:55 AM 23.9 °F - 21.0 °F 89% 30.25 in 10.0 mi Calm Calm - N/A   Clear
7:15 AM 25.0 °F - 20.8 °F 84% 30.26 in 10.0 mi Calm Calm - N/A   Mostly Cloudy
7:35 AM 26.2 °F - 21.2 °F 81% 30.27 in 10.0 mi Calm Calm - N/A   Scattered Clouds
7:55 AM 28.9 °F 23.9 °F 22.8 °F 78% 30.27 in 10.0 mi SSE 4.6 mph - N/A   Scattered Clouds
8:15 AM 31.1 °F 27.7 °F 23.2 °F 72% 30.28 in 10.0 mi SSE 3.5 mph - N/A   Overcast
8:35 AM 32.0 °F 27.5 °F 23.4 °F 70% 30.28 in 10.0 mi South 4.6 mph - N/A   Overcast
8:55 AM 32.0 °F 26.4 °F 23.7 °F 71% 30.28 in 10.0 mi South 5.8 mph - N/A   Overcast
9:15 AM 32.0 °F 24.8 °F 25.7 °F 78% 30.28 in 3.0 mi SSE 8.1 mph - N/A Snow Light Snow
9:35 AM 32.2 °F 25.8 °F 26.4 °F 79% 30.27 in 10.0 mi SE 6.9 mph - N/A Snow Light Snow
9:55 AM 32.9 °F 26.7 °F 26.6 °F 78% 30.27 in 10.0 mi ESE 6.9 mph - N/A   Overcast
10:15 AM 33.8 °F 27.0 °F 27.5 °F 78% 30.27 in 10.0 mi ESE 8.1 mph - N/A   Overcast
10:35 AM 33.8 °F 26.4 °F 27.5 °F 78% 30.26 in 10.0 mi ESE 9.2 mph - N/A   Overcast
10:55 AM 34.5 °F 26.7 °F 27.5 °F 76% 30.26 in 10.0 mi SE 10.4 mph - N/A   Overcast
11:15 AM 34.9 °F 28.3 °F 27.7 °F 75% 30.26 in 10.0 mi ESE 8.1 mph - N/A   Overcast
11:35 AM 35.8 °F 27.3 °F 28.4 °F 75% 30.24 in 10.0 mi ESE 12.7 mph - N/A   Overcast
11:55 AM 36.3 °F 29.5 °F 28.4 °F 73% 30.24 in 10.0 mi ESE 9.2 mph - N/A   Overcast
12:15 PM 36.7 °F 28.0 °F 28.2 °F 71% 30.23 in 10.0 mi ESE 13.8 mph 17.3 mph N/A   Overcast
12:35 PM 36.3 °F 26.8 °F 29.1 °F 75% 30.23 in 3.0 mi ESE 16.1 mph - N/A Snow Light Snow
12:55 PM 35.8 °F 28.3 °F 31.1 °F 83% 30.22 in 2.5 mi ESE 10.4 mph 18.4 mph N/A Snow Light Snow
1:15 PM 36.9 °F 27.5 °F 31.8 °F 82% 30.21 in 7.0 mi ESE 16.1 mph 19.6 mph N/A   Overcast
1:35 PM 38.3 °F 29.7 °F 29.7 °F 71% 30.20 in 10.0 mi ESE 15.0 mph 19.6 mph N/A   Overcast
1:55 PM 38.7 °F 29.1 °F 28.8 °F 68% 30.19 in 10.0 mi SE 18.4 mph 21.9 mph N/A   Overcast
2:15 PM 38.8 °F 30.4 °F 29.7 °F 70% 30.18 in 10.0 mi SE 15.0 mph 19.6 mph N/A   Overcast
2:35 PM 39.2 °F 30.8 °F 29.3 °F 68% 30.18 in 10.0 mi ESE 15.0 mph 20.7 mph N/A   Mostly Cloudy
2:55 PM 41.4 °F 32.4 °F 29.3 °F 62% 30.18 in 10.0 mi ESE 19.6 mph 26.5 mph N/A   Scattered Clouds
3:15 PM 40.6 °F 31.7 °F 28.6 °F 62% 30.17 in 10.0 mi ESE 18.4 mph 25.3 mph N/A   Scattered Clouds
3:35 PM 40.5 °F 31.8 °F 28.4 °F 62% 30.16 in 10.0 mi ESE 17.3 mph 24.2 mph N/A   Clear
3:55 PM 40.5 °F 32.8 °F 29.3 °F 64% 30.16 in 10.0 mi ESE 13.8 mph 19.6 mph N/A   Clear
4:15 PM 39.9 °F 30.8 °F 28.6 °F 64% 30.16 in 10.0 mi SE 18.4 mph 21.9 mph N/A   Clear
4:35 PM 39.2 °F 31.2 °F 28.4 °F 65% 30.16 in 10.0 mi SE 13.8 mph 21.9 mph N/A   Clear
4:55 PM 38.7 °F 29.8 °F 28.2 °F 66% 30.15 in 10.0 mi ESE 16.1 mph 24.2 mph N/A   Clear
5:15 PM 38.3 °F 29.3 °F 27.9 °F 66% 30.13 in 10.0 mi SE 16.1 mph 23.0 mph N/A   Scattered Clouds
5:35 PM 38.3 °F 29.3 °F 27.5 °F 65% 30.13 in 10.0 mi SE 16.1 mph 24.2 mph N/A   Clear
5:55 PM 38.3 °F 28.7 °F 27.1 °F 64% 30.13 in 10.0 mi SE 18.4 mph 25.3 mph N/A   Scattered Clouds
6:15 PM 38.3 °F 29.7 °F 26.1 °F 61% 30.14 in 10.0 mi SE 15.0 mph 21.9 mph N/A   Clear
6:35 PM 38.5 °F 31.6 °F 25.9 °F 61% 30.16 in 10.0 mi SSE 10.4 mph 18.4 mph N/A   Scattered Clouds
6:55 PM 38.7 °F 29.8 °F 25.3 °F 59% 30.12 in 10.0 mi SE 16.1 mph 21.9 mph N/A   Scattered Clouds
7:15 PM 38.8 °F 31.2 °F 24.8 °F 57% 30.14 in 10.0 mi SE 12.7 mph 19.6 mph N/A   Mostly Cloudy
7:35 PM 38.8 °F 32.1 °F 24.8 °F 57% 30.16 in 10.0 mi SE 10.4 mph 16.1 mph N/A   Overcast
7:55 PM 39.2 °F 32.0 °F 24.3 °F 55% 30.16 in 10.0 mi SE 11.5 mph - N/A   Overcast
8:15 PM 39.2 °F 32.5 °F 24.6 °F 56% 30.16 in 10.0 mi SE 10.4 mph - N/A   Overcast
8:35 PM 39.6 °F 33.0 °F 24.1 °F 54% 30.16 in 10.0 mi ESE 10.4 mph 17.3 mph N/A   Overcast
8:55 PM 39.2 °F 33.0 °F 24.8 °F 56% 30.16 in 10.0 mi East 9.2 mph - N/A   Overcast
9:15 PM 36.7 °F 28.9 °F 27.3 °F 69% 30.17 in 10.0 mi East 11.5 mph - N/A   Overcast
9:35 PM 35.8 °F 29.4 °F 28.0 °F 73% 30.18 in 10.0 mi East 8.1 mph - N/A   Overcast
9:55 PM 35.6 °F 28.6 °F 28.2 °F 75% 30.17 in 10.0 mi East 9.2 mph - N/A   Mostly Cloudy
10:15 PM 35.6 °F 29.2 °F 28.2 °F 75% 30.16 in 10.0 mi East 8.1 mph - N/A   Mostly Cloudy
10:35 PM 36.0 °F 30.3 °F 28.0 °F 73% 30.17 in 10.0 mi East 6.9 mph - N/A   Mostly Cloudy
10:55 PM 36.0 °F 30.3 °F 28.2 °F 73% 30.16 in 10.0 mi East 6.9 mph - N/A   Overcast
11:15 PM 35.8 °F 30.1 °F 28.4 °F 75% 30.16 in 10.0 mi East 6.9 mph - N/A   Overcast
11:35 PM 35.6 °F 29.2 °F 28.6 °F 76% 30.16 in 10.0 mi East 8.1 mph - N/A   Overcast
11:55 PM 35.8 °F 30.9 °F 28.8 °F 76% 30.16 in 10.0 mi East 5.8 mph - N/A   Overcast